[[{"header":{"parameterUnit":"m.s-1","parameterCategory":1,"la1":30.2991,"la2":30.254,"lo1":-89.0895,"lo2":-89.0444,"dy":0.0017,"dx":0.0017,"nx":28,"ny":28,"refTime":"2023-10-07T03:00:00:Z","depth":0,"parameterNumber":2,"parameterNumberName":"U-component_of_WINDS"},"data":[0,0,0,0,0,0,0,0,0,0,0,0,0,0,0,0,0,0,0,0,0,0,0,0,0,0,0,0,0,0,0,0,0,0,0,0,0,0,0,0,0,0,0,0,0,0,0,0,0,0,0,0,0,0,0,0,0,0,-2.1214,-2.1214,0,-2.1244,-2.1244,-2.1244,-2.1202,-2.1201,-2.1199,-2.1198,-2.1228,-2.123,-2.1232,0,0,0,0,0,0,0,0,0,0,0,0,0,-2.112,-2.1122,-2.1214,-2.1214,-2.1215,-2.1244,-2.1244,-2.1245,-2.1203,-2.1201,-2.1199,-2.1197,-2.1227,-2.123,-2.1232,0,0,0,0,0,0,0,0,0,0,0,0,0,-2.1156,-2.1122,-2.1214,-2.1197,-2.1196,-2.1244,-2.1244,-2.1245,-2.1203,-2.1201,-2.1198,-2.1196,-2.1226,-2.123,-2.1233,-2.1298,0,0,-2.1243,-2.1244,0,0,0,0,0,0,0,0,-2.1154,-2.116,-2.1199,-2.1199,-2.1197,-2.1217,-2.1222,-2.1262,-2.1203,-2.12,-2.1198,-2.1195,-2.1226,-2.1229,-2.124,-2.1299,-2.1301,-2.1243,-2.1245,-2.1247,-2.1248,0,0,0,0,0,0,0,-2.1152,-2.1158,-2.1226,-2.12,-2.1199,-2.1188,-2.1191,-2.1229,-2.1225,-2.12,-2.1197,-2.1202,-2.1225,-2.1237,-2.124,-2.1301,-2.1243,-2.1246,-2.1248,-2.1249,-2.1415,-2.1418,0,0,0,0,0,0,-2.1151,-2.1156,-2.1225,-2.1227,-2.117,-2.1192,-2.1195,-2.1213,-2.1225,-2.1225,-2.1203,-2.1199,-2.1232,-2.1236,-2.1241,-2.1318,-2.1247,-2.125,-2.1252,-2.1413,-2.1416,-2.1418,0,0,0,0,0,0,-2.115,-2.1158,-2.1224,-2.1191,-2.1198,-2.1196,-2.1217,-2.1215,-2.1226,-2.1227,-2.1226,-2.1216,-2.1231,-2.1236,-2.1284,-2.1319,-2.1251,-2.1254,-2.141,-2.1414,-2.1417,-2.1473,0,0,0,0,0,0,-2.1147,-2.1157,-2.1183,-2.1192,-2.12,-2.1267,-2.1219,-2.1217,-2.1232,-2.1227,-2.1239,-2.1239,-2.1229,-2.1279,-2.1287,-2.1322,-2.1257,-2.1407,-2.1412,-2.1416,-2.1469,-2.1479,-2.1487,0,0,0,0,0,-2.1144,-2.1197,-2.1184,-2.1193,-2.1232,-2.1269,-2.1274,-2.1262,-2.1235,-2.126,-2.126,-2.1238,-2.1313,-2.1285,-2.1293,-2.133,-2.1405,-2.141,-2.1416,-2.1464,-2.1477,-2.1487,0,0,0,0,0,0,-2.1192,-2.1198,-2.1184,-2.1242,-2.1255,-2.1262,-2.1293,-2.1275,-2.1297,-2.1291,-2.1276,-2.1279,-2.133,-2.1334,-2.1302,-2.1393,-2.1354,-2.1362,-2.1389,-2.14,-2.1409,-2.1408,-2.1259,0,0,0,0,0,-2.121,-2.124,-2.1243,-2.1294,-2.1301,-2.1296,-2.1312,-2.1302,-2.1315,-2.132,-2.1324,-2.1338,-2.1364,-2.1382,-2.1407,-2.1468,-2.147,-2.1497,-2.1507,-2.1514,-2.1521,-2.1554,-2.1567,-2.1436,-2.1436,-2.1436,0,0,-2.1246,-2.1253,-2.1273,-2.1304,-2.1313,-2.1344,-2.1301,-2.1336,-2.1359,-2.1325,-2.1371,-2.1374,-2.1388,-2.1443,-2.1468,-2.1448,-2.1557,-2.1521,-2.1527,-2.153,-2.1561,-2.1574,-2.1585,-2.144,-2.1439,-2.1439,0,0,-2.1329,-2.1337,-2.1381,-2.139,-2.1405,-2.1401,-2.1411,-2.142,-2.1421,-2.1466,-2.1442,-2.1468,-2.1515,-2.1526,-2.1537,-2.1623,-2.1603,-2.1631,-2.1681,-2.1713,-2.1723,-2.1732,-2.1763,-2.1775,-2.1638,-2.1638,-2.1638,0,-2.1373,-2.1419,-2.1405,-2.1442,-2.1456,-2.1426,-2.147,-2.148,-2.1502,-2.1512,-2.149,-2.1547,-2.1555,-2.1612,-2.1633,-2.1643,-2.1654,-2.1631,-2.1723,-2.1732,-2.174,-2.1769,-2.1781,-2.1641,-2.1641,-2.1641,-2.164,0,-2.1472,-2.1505,-2.1538,-2.156,-2.1578,-2.1618,-2.1609,-2.1629,-2.1616,-2.1614,-2.1661,-2.1668,-2.1694,-2.1706,-2.1694,-2.1762,-2.1749,-2.1725,-2.1687,-2.1756,-2.1783,-2.1795,-2.1646,-2.1645,-2.1644,-2.1643,0,0,-2.1588,-2.1601,-2.1614,-2.1623,-2.1636,-2.1661,-2.1699,-2.1724,-2.1741,-2.1757,-2.1788,-2.1828,-2.1805,-2.1818,-2.1808,-2.1836,-2.1904,-2.1808,-2.1808,-2.1826,-2.1978,-2.1997,-2.2011,-2.189,-2.1892,-2.1894,-2.1977,0,-2.1672,-2.1739,-2.1726,-2.1791,-2.1821,-2.1793,-2.1826,-2.1837,-2.1836,-2.1861,-2.1859,-2.1888,-2.1856,-2.1864,-2.189,-2.189,-2.1934,-2.1883,-2.192,-2.1921,-2.1919,-2.2025,-2.2045,-2.2124,-2.1988,-2.199,-2.1991,0,-2.1778,-2.1798,-2.1866,-2.1874,-2.1886,-2.1916,-2.1938,-2.1962,-2.1974,-2.1971,-2.1985,-2.1969,-2.2006,-2.1966,-2.2018,-2.1984,-2.1997,-2.1999,-2.2002,-2.2006,-2.1961,-2.2033,-2.2149,-2.2161,-2.2008,-2.2006,-2.2005,0,-2.1857,-2.19,-2.1947,-2.1955,-2.1966,-2.1988,-2.1993,-2.2003,-2.2018,-2.2037,-2.2047,-2.2069,-2.2082,-2.21,-2.2089,-2.2061,-2.2143,-2.2102,-2.2142,-2.2142,-2.2162,-2.2161,-2.2283,-2.2169,-2.2168,-2.2168,-2.2168,0,-2.1952,-2.1995,-2.1982,-2.2011,-2.2058,-2.2043,-2.209,-2.2091,-2.21,-2.2128,-2.2104,-2.2131,-2.2116,-2.2141,-2.2133,-2.2177,-2.2183,-2.2182,-2.2179,-2.2185,-2.2185,-2.2194,-2.2189,-2.2171,-2.2171,-2.217,-2.217,0,-2.2049,-2.2042,-2.2091,-2.2096,-2.2099,-2.2133,-2.2138,-2.2164,-2.216,-2.2196,-2.2204,-2.2198,-2.2227,-2.2218,-2.2249,-2.2244,-2.23,-2.229,-2.2296,-2.2294,-2.2335,-2.2332,-2.2469,-2.2486,-2.236,-2.2361,-2.2362,0,-2.2111,-2.2144,-2.2153,-2.217,-2.2177,-2.2205,-2.2221,-2.2206,-2.2223,-2.2239,-2.2264,-2.229,-2.2311,-2.2358,-2.2356,-2.238,-2.2371,-2.2417,-2.2374,-2.2378,-2.2372,-2.2371,-2.2374,-2.2426,-2.2427,-2.2429,-2.2429,0,-2.2222,-2.2217,-2.2241,-2.2263,-2.2283,-2.23,-2.2314,-2.233,-2.2316,-2.2337,-2.2366,-2.2382,-2.2413,-2.2439,-2.246,-2.2465,-2.2446,-2.2443,-2.2453,-2.246,-2.2463,-2.2462,-2.2321,-2.244,-2.2439,-2.2438,-2.2438,-2.2437,-2.2304,-2.2332,-2.2342,-2.2369,-2.2379,-2.2393,-2.2418,-2.2417,-2.2441,-2.2466,-2.2456,-2.2489,-2.2499,-2.2525,-2.2533,-2.2558,-2.2541,-2.2556,-2.256,-2.2565,-2.257,-2.2457,-2.2562,-2.2562,-2.2561,-2.2561,-2.2561,0,-2.2415,-2.242,-2.2445,-2.2466,-2.2488,-2.2466,-2.2481,-2.25,-2.253,-2.2541,-2.2562,-2.2595,-2.262,-2.2621,-2.2644,-2.2665,-2.2656,-2.2671,-2.267,-2.2672,-2.2584,-2.2573,-2.2678,-2.2678,-2.2678,-2.2678,-2.2678,-2.2678,-2.2475,-2.2521,-2.2516,-2.2566,-2.257,-2.2603,-2.2614,-2.2626,-2.2635,-2.2673,-2.2694,-2.2694,-2.2701,-2.2724,-2.2747,-2.2746,-2.2756,-2.2775,-2.2771,-2.269,-2.2678,-2.2667,-2.2656,-2.2777,-2.2777,-2.2856,-2.2857,-2.2858]},{"header":{"parameterUnit":"m.s-1","parameterCategory":1,"la1":30.2991,"la2":30.254,"lo1":-89.0895,"lo2":-89.0444,"dy":0.0017,"dx":0.0017,"nx":28,"ny":28,"refTime":"2023-10-07T03:00:00:Z","depth":0,"parameterNumber":3,"parameterNumberName":"V-component_of_WINDS"},"data":[0,0,0,0,0,0,0,0,0,0,0,0,0,0,0,0,0,0,0,0,0,0,0,0,0,0,0,0,0,0,0,0,0,0,0,0,0,0,0,0,0,0,0,0,0,0,0,0,0,0,0,0,0,0,0,0,0,0,-7.8915,-7.8916,0,-7.8989,-7.899,-7.8991,-7.8916,-7.8913,-7.8911,-7.8908,-7.8977,-7.8982,-7.8986,0,0,0,0,0,0,0,0,0,0,0,0,0,-7.8704,-7.8708,-7.8915,-7.8916,-7.8917,-7.8989,-7.899,-7.8991,-7.8917,-7.8913,-7.891,-7.8907,-7.8976,-7.8981,-7.8986,0,0,0,0,0,0,0,0,0,0,0,0,0,-7.8788,-7.8709,-7.8915,-7.8889,-7.8887,-7.8989,-7.899,-7.8991,-7.8918,-7.8913,-7.8909,-7.8905,-7.8974,-7.898,-7.8987,-7.9116,0,0,-7.9008,-7.9011,0,0,0,0,0,0,0,0,-7.8784,-7.8796,-7.8892,-7.8891,-7.8889,-7.8939,-7.8941,-7.9033,-7.8919,-7.8906,-7.8908,-7.8903,-7.8968,-7.8975,-7.8998,-7.912,-7.9122,-7.9009,-7.9013,-7.9016,-7.9018,0,0,0,0,0,0,0,-7.8778,-7.8792,-7.8944,-7.8893,-7.8892,-7.8871,-7.8879,-7.8958,-7.896,-7.8907,-7.8902,-7.8912,-7.8966,-7.8992,-7.8999,-7.9123,-7.9008,-7.9014,-7.9019,-7.9021,-7.9355,-7.936,0,0,0,0,0,0,-7.8776,-7.8788,-7.8942,-7.8946,-7.8825,-7.8879,-7.8887,-7.8928,-7.8959,-7.896,-7.8915,-7.8908,-7.8982,-7.8991,-7.9001,-7.9155,-7.9016,-7.9022,-7.9026,-7.9351,-7.9356,-7.9362,0,0,0,0,0,0,-7.8771,-7.879,-7.8939,-7.8866,-7.8883,-7.8887,-7.8933,-7.8931,-7.8957,-7.8966,-7.8965,-7.8941,-7.8979,-7.8991,-7.9089,-7.9156,-7.9025,-7.9031,-7.9345,-7.9352,-7.9359,-7.9464,0,0,0,0,0,0,-7.8766,-7.8789,-7.884,-7.8868,-7.8888,-7.9028,-7.8937,-7.8936,-7.897,-7.8961,-7.899,-7.899,-7.8976,-7.9079,-7.9096,-7.9163,-7.9037,-7.9339,-7.9348,-7.9357,-7.9455,-7.9474,-7.949,0,0,0,0,0,-7.8758,-7.8864,-7.8843,-7.8861,-7.8951,-7.9032,-7.9043,-7.9026,-7.8975,-7.9025,-7.9031,-7.899,-7.9146,-7.909,-7.9108,-7.9179,-7.9335,-7.9346,-7.9356,-7.9446,-7.947,-7.949,0,0,0,0,0,0,-7.8841,-7.8868,-7.8844,-7.8962,-7.8996,-7.9019,-7.9081,-7.9052,-7.9098,-7.9088,-7.9063,-7.9071,-7.9174,-7.9186,-7.9122,-7.9305,-7.9232,-7.9247,-7.9294,-7.9317,-7.9335,-7.933,-7.9042,0,0,0,0,0,-7.8874,-7.8939,-7.8957,-7.906,-7.9079,-7.9078,-7.9112,-7.9097,-7.9129,-7.9142,-7.9155,-7.9186,-7.9243,-7.928,-7.9332,-7.9456,-7.9461,-7.9513,-7.9531,-7.9546,-7.9559,-7.9626,-7.9649,-7.9397,-7.9397,-7.9397,0,0,-7.894,-7.8963,-7.9005,-7.9078,-7.9102,-7.9168,-7.909,-7.9163,-7.9212,-7.9152,-7.9246,-7.9257,-7.929,-7.9402,-7.9451,-7.9414,-7.963,-7.956,-7.9571,-7.9577,-7.9639,-7.9663,-7.9684,-7.9404,-7.9403,-7.9402,0,0,-7.9097,-7.9121,-7.921,-7.9236,-7.9275,-7.9274,-7.9295,-7.9324,-7.9329,-7.9423,-7.9381,-7.9437,-7.9534,-7.9561,-7.9586,-7.9755,-7.9718,-7.9772,-7.9866,-7.9931,-7.9951,-7.9968,-8.0029,-8.0051,-7.9785,-7.9785,-7.9785,0,-7.9174,-7.9276,-7.9258,-7.9336,-7.9369,-7.9321,-7.9411,-7.9436,-7.9489,-7.9512,-7.947,-7.9593,-7.9612,-7.9729,-7.977,-7.9793,-7.9816,-7.9768,-7.995,-7.9967,-7.9983,-8.0041,-8.0063,-7.9791,-7.9791,-7.979,-7.9789,0,-7.9369,-7.944,-7.9507,-7.9563,-7.9603,-7.9686,-7.968,-7.9722,-7.9704,-7.9706,-7.9803,-7.9824,-7.988,-7.9907,-7.9888,-8.0022,-7.9998,-7.9954,-7.9879,-8.0014,-8.0068,-8.0089,-7.9801,-7.9798,-7.9796,-7.9795,0,0,-7.9579,-7.9626,-7.9651,-7.9676,-7.9716,-7.9769,-7.9849,-7.9907,-7.9944,-7.9982,-8.0048,-8.0133,-8.0093,-8.0122,-8.0106,-8.0163,-8.0296,-8.0112,-8.0112,-8.0146,-8.0445,-8.0479,-8.0504,-8.0272,-8.0276,-8.0279,-8.0442,0,-7.9737,-7.988,-7.9868,-8.0002,-8.0067,-8.0023,-8.0093,-8.0124,-8.0129,-8.0183,-8.0187,-8.0248,-8.019,-8.0208,-8.0262,-8.0268,-8.0356,-8.0256,-8.0333,-8.0336,-8.0327,-8.0532,-8.0568,-8.072,-8.0463,-8.0466,-8.0469,0,-7.9941,-7.999,-8.0132,-8.0163,-8.019,-8.0253,-8.0306,-8.0358,-8.0392,-8.0391,-8.0426,-8.04,-8.048,-8.0404,-8.0512,-8.0445,-8.0475,-8.0483,-8.0489,-8.0495,-8.0411,-8.0545,-8.0768,-8.0792,-8.0502,-8.0499,-8.0497,0,-8.0081,-8.0182,-8.028,-8.0303,-8.0341,-8.0387,-8.0405,-8.0435,-8.047,-8.0515,-8.0538,-8.0591,-8.062,-8.066,-8.0649,-8.0595,-8.0761,-8.0684,-8.0762,-8.0762,-8.0799,-8.0797,-8.1031,-8.0818,-8.0817,-8.0817,-8.0816,0,-8.026,-8.0348,-8.0344,-8.0404,-8.0502,-8.0486,-8.0583,-8.0594,-8.0622,-8.0682,-8.0646,-8.0703,-8.0685,-8.0741,-8.0732,-8.0824,-8.0836,-8.0837,-8.0834,-8.0841,-8.0841,-8.0861,-8.085,-8.0823,-8.0821,-8.082,-8.0819,0,-8.0433,-8.0433,-8.0538,-8.0567,-8.0576,-8.0647,-8.0671,-8.0727,-8.0729,-8.0807,-8.0824,-8.0827,-8.0891,-8.0884,-8.0955,-8.0949,-8.1063,-8.1046,-8.1053,-8.1049,-8.1128,-8.1121,-8.1384,-8.1417,-8.1182,-8.1184,-8.1186,0,-8.0547,-8.0615,-8.0652,-8.0692,-8.0714,-8.0777,-8.0814,-8.0801,-8.0841,-8.0886,-8.0936,-8.0998,-8.1046,-8.115,-8.1158,-8.1212,-8.1196,-8.1285,-8.1204,-8.121,-8.1199,-8.1195,-8.1202,-8.1301,-8.1303,-8.1306,-8.1307,0,-8.075,-8.0747,-8.0804,-8.0862,-8.0908,-8.0952,-8.0991,-8.1025,-8.1015,-8.1062,-8.1129,-8.1167,-8.124,-8.1302,-8.1353,-8.1368,-8.1337,-8.1333,-8.1354,-8.1362,-8.1363,-8.1364,-8.1097,-8.1327,-8.1325,-8.1323,-8.1322,-8.1322,-8.0897,-8.0956,-8.0993,-8.1057,-8.1086,-8.1124,-8.118,-8.119,-8.1246,-8.1307,-8.1295,-8.137,-8.1402,-8.1468,-8.149,-8.1547,-8.1514,-8.1545,-8.1552,-8.156,-8.157,-8.1354,-8.1556,-8.1555,-8.1555,-8.1554,-8.1554,0,-8.1099,-8.1121,-8.1181,-8.1239,-8.129,-8.1258,-8.13,-8.1344,-8.1412,-8.1445,-8.1495,-8.1571,-8.1631,-8.1644,-8.17,-8.1744,-8.173,-8.1759,-8.1756,-8.176,-8.1595,-8.1572,-8.1769,-8.1769,-8.1769,-8.1769,-8.1769,-8.1769,-8.121,-8.1309,-8.1311,-8.1422,-8.1442,-8.1518,-8.1545,-8.158,-8.1607,-8.1696,-8.1746,-8.1755,-8.178,-8.1838,-8.1891,-8.1893,-8.1916,-8.1951,-8.1947,-8.1793,-8.1771,-8.1751,-8.1729,-8.1955,-8.1956,-8.2107,-8.2108,-8.2109]}]]